#timestamp,LO_Frequency,Hit,StdDev 
1617760815.7,286047002.3,N
1617760835.5,286047004.4,Y
1617760855.4,286047000.1,P
1617760875.2,286047000.0,N
1617760895.0,286047000.8,N
1617760895.9,286047000.8,N
1617760915.8,286046998.7,Y
1617760935.6,286046997.0,P
1617760955.5,286046995.1,N
1617760975.3,286046995.4,N
1617760995.1,286046996.8,N
1617761015.9,286046997.6,N
1617761035.7,286046995.7,N
1617761055.5,286046995.6,N
1617761075.4,286046997.7,N
1617761095.2,286046999.2,N
1617761115.1,286047002.3,N
1617761116.0,286047002.3,N
1617761135.8,286047000.4,N
1617761155.6,286047000.9,N
1617761175.5,286047001.0,N
1617761195.3,286047001.2,N
1617761215.1,286046999.3,N
1617761235.9,286046998.1,N
1617761255.7,286047000.6,N
1617761275.6,286047000.7,N
1617761295.4,286047000.5,N
1617761315.2,286046998.1,N
1617761335.1,286047001.2,N
1617761336.0,286047001.2,N
1617761355.8,286046996.6,N
1617761375.6,286046998.6,N
1617761395.5,286046999.0,N
1617761415.3,286046996.7,N
1617761435.2,286046997.1,N
1617761455.9,286046997.2,N
1617761475.7,286046999.0,N
1617761495.6,286046999.6,N
1617761515.4,286047000.1,N
1617761535.2,286046999.9,N
1617761555.1,286046998.3,N
1617761556.0,286046998.3,N
1617761575.8,286047001.2,N
1617761595.7,286046998.3,N
1617761615.5,286046997.8,N
1617761635.3,286046998.0,N
1617761655.2,286046995.2,N
1617761675.9,286046997.8,N
1617761695.7,286047001.1,N
1617761715.6,286046996.5,N
1617761735.4,286046997.7,N
1617761755.2,286046999.1,N
1617761775.1,286047000.3,N
1617761776.0,286047000.3,N
1617761795.8,286046999.0,N
1617761815.7,286046998.9,N
1617761835.5,286046996.9,N
1617761855.3,286046999.6,N
1617761875.2,286046997.6,N
1617761895.0,286046995.8,N
1617761895.9,286046995.8,N
1617761915.8,286046997.2,N
1617761935.6,286047000.0,N
1617761955.4,286046999.7,N
1617761975.3,286047001.6,N
1617761995.1,286047001.9,N
1617762015.8,286047001.0,N
1617762035.7,286047000.7,N
1617762055.5,286047000.8,N
1617762075.4,286046998.9,N
1617762095.2,286047000.2,N
1617762115.0,286047001.3,N
1617762115.9,286047001.3,N
1617762135.8,286047002.3,N
1617762155.6,286046999.8,N
1617762175.4,286047001.8,N
1617762195.3,286047001.3,N
1617762215.1,286047003.1,N
1617762235.9,286047006.0,Y
1617762255.7,286047005.7,P
1617762275.5,286047003.9,N
1617762295.4,286047001.6,N
1617762315.2,286047002.3,N
1617762335.1,286047002.8,N
1617762336.0,286047002.8,N
1617762355.8,286047000.8,N
1617762375.6,286047000.4,N
1617762395.5,286047002.3,N
1617762415.3,286047000.2,N
1617762435.2,286047002.7,N
1617762455.9,286047004.4,N
1617762475.7,286047004.7,N
1617762495.6,286047004.9,N
1617762515.4,286047003.3,N
1617762535.2,286047007.6,Y
1617762555.1,286047001.2,P
1617762556.0,286047001.2,N
1617762575.8,286046998.0,N
1617762595.7,286046997.9,N
1617762645.5,286046998.2,E
1617762655.4,286047000.1,N
1617762675.3,286047002.4,P
1617762695.1,286047001.6,N
1617762715.9,286047003.9,Y
1617762735.7,286047002.5,P
1617762755.5,286047004.4,P
1617762775.4,286047001.3,N
1617762795.2,286047001.3,N
1617762815.0,286047002.5,N
1617762815.9,286047002.5,N
1617762835.8,286047003.9,Y
1617762855.6,286047001.2,P
1617762875.5,286046997.2,P
1617762895.3,286046995.5,N
1617762915.1,286046995.7,N
1617762935.9,286046997.8,N
1617762955.7,286046996.8,N
1617762975.6,286046999.2,N
1617762995.4,286046999.5,N
1617763015.2,286047000.9,N
1617763035.1,286047000.9,N
1617763036.0,286047000.9,N
1617763055.8,286047001.0,N
1617763075.7,286046998.8,N
1617763095.5,286047001.2,N
1617763115.3,286047001.2,N
1617763135.2,286047000.0,N
1617763155.9,286047001.2,N
1617763175.7,286047002.4,N
1617763195.6,286047002.0,N
1617763215.4,286047002.1,N
1617763235.2,286047000.6,N
1617763255.1,286046999.4,N
1617763256.0,286046999.4,N
1617763275.8,286046999.5,N
1617763295.7,286046999.0,N
1617763315.5,286046998.3,N
1617763335.3,286046996.5,N
1617763355.2,286046999.1,N
1617763375.7,286047000.6,N
1617763395.5,286047000.0,N
1617763415.3,286046998.6,N
1617763435.2,286047000.7,N
1617763455.0,286047000.2,N
1617763455.9,286047000.2,N
1617763475.8,286046999.9,N
1617763495.6,286047001.4,N
1617763515.4,286047000.8,N
1617763535.3,286046996.6,N
1617763555.1,286046996.5,N
1617763556.0,286046996.5,N
1617763575.8,286046994.9,Y
1617763595.7,286046996.6,P
1617763615.5,286046997.5,N
1617763635.4,286046997.7,N
1617763655.2,286046997.0,N
1617763675.0,286046999.3,N
1617763675.9,286046999.3,N
1617763695.8,286046999.4,N
1617763715.6,286046999.6,N
1617763735.4,286046998.3,N
1617763755.3,286046996.8,N
1617763775.1,286046995.5,Y
1617763795.9,286046998.7,P
1617763815.7,286046999.6,N
1617763835.5,286046998.8,N
1617763855.4,286046996.5,Y
1617763875.2,286046998.1,P
1617763895.0,286047000.2,N
1617763895.9,286047000.2,N
1617763915.8,286047000.2,N
1617763935.6,286046999.4,N
1617763955.5,286046998.4,N
1617763975.3,286046998.5,N
1617763995.1,286046998.7,N
1617764015.9,286047002.4,N
1617764035.7,286046999.8,N
1617764055.5,286047000.3,N
1617764075.4,286047000.8,N
1617764095.2,286047000.5,N
1617764115.1,286046998.2,N
1617764116.0,286046998.2,N
1617764135.8,286046997.2,N
1617764155.7,286046996.5,N
1617764175.5,286046996.9,N
1617764195.3,286046998.8,N
1617764215.2,286047000.3,N
1617764235.0,286047002.3,N
1617764235.9,286047002.3,N
1617764255.8,286047006.0,Y
1617764275.6,286047003.7,P
1617764295.4,286047005.6,N
1617764315.3,286047001.8,N
1617764335.1,286047004.4,N
1617764355.8,286047003.2,N
1617764375.7,286047006.9,Y
1617764395.6,286047000.1,P
